Index of /20260422/WXO-DD/model_gdps/15km/00/129
Name Last modified Size Description
Parent Directory -
20260422T00Z_MSC_GDPS_AbsoluteVorticity_IsbL-0200_LatLon0.15_PT129H.grib2 2026-04-22 04:34 1.5M
20260422T00Z_MSC_GDPS_AbsoluteVorticity_IsbL-0250_LatLon0.15_PT129H.grib2 2026-04-22 04:34 1.3M
20260422T00Z_MSC_GDPS_AbsoluteVorticity_IsbL-0500_LatLon0.15_PT129H.grib2 2026-04-22 04:34 1.2M
20260422T00Z_MSC_GDPS_AbsoluteVorticity_IsbL-0700_LatLon0.15_PT129H.grib2 2026-04-22 04:34 1.3M
20260422T00Z_MSC_GDPS_AbsoluteVorticity_IsbL-0850_LatLon0.15_PT129H.grib2 2026-04-22 04:34 1.6M
20260422T00Z_MSC_GDPS_AirTemp_AGL-120m_LatLon0.15_PT129H.grib2 2026-04-22 04:34 910K
20260422T00Z_MSC_GDPS_AirTemp_AGL-2m_LatLon0.15_PT129H.grib2 2026-04-22 04:34 1.0M
20260422T00Z_MSC_GDPS_AirTemp_AGL-40m_LatLon0.15_PT129H.grib2 2026-04-22 04:34 813K
20260422T00Z_MSC_GDPS_AirTemp_AGL-80m_LatLon0.15_PT129H.grib2 2026-04-22 04:34 803K
20260422T00Z_MSC_GDPS_AirTemp_IsbL-0001_LatLon0.15_PT129H.grib2 2026-04-22 04:34 644K
20260422T00Z_MSC_GDPS_AirTemp_IsbL-0005_LatLon0.15_PT129H.grib2 2026-04-22 04:34 750K
20260422T00Z_MSC_GDPS_AirTemp_IsbL-0010_LatLon0.15_PT129H.grib2 2026-04-22 04:34 756K
20260422T00Z_MSC_GDPS_AirTemp_IsbL-0020_LatLon0.15_PT129H.grib2 2026-04-22 04:34 696K
20260422T00Z_MSC_GDPS_AirTemp_IsbL-0030_LatLon0.15_PT129H.grib2 2026-04-22 04:34 747K
20260422T00Z_MSC_GDPS_AirTemp_IsbL-0050_LatLon0.15_PT129H.grib2 2026-04-22 04:34 801K
20260422T00Z_MSC_GDPS_AirTemp_IsbL-0100_LatLon0.15_PT129H.grib2 2026-04-22 04:34 1.0M
20260422T00Z_MSC_GDPS_AirTemp_IsbL-0150_LatLon0.15_PT129H.grib2 2026-04-22 04:34 1.0M
20260422T00Z_MSC_GDPS_AirTemp_IsbL-0175_LatLon0.15_PT129H.grib2 2026-04-22 04:34 948K
20260422T00Z_MSC_GDPS_AirTemp_IsbL-0200_LatLon0.15_PT129H.grib2 2026-04-22 04:34 965K
20260422T00Z_MSC_GDPS_AirTemp_IsbL-0225_LatLon0.15_PT129H.grib2 2026-04-22 04:34 970K
20260422T00Z_MSC_GDPS_AirTemp_IsbL-0250_LatLon0.15_PT129H.grib2 2026-04-22 04:34 1.0M
20260422T00Z_MSC_GDPS_AirTemp_IsbL-0275_LatLon0.15_PT129H.grib2 2026-04-22 04:34 1.0M
20260422T00Z_MSC_GDPS_AirTemp_IsbL-0300_LatLon0.15_PT129H.grib2 2026-04-22 04:34 1.0M
20260422T00Z_MSC_GDPS_AirTemp_IsbL-0350_LatLon0.15_PT129H.grib2 2026-04-22 04:34 922K
20260422T00Z_MSC_GDPS_AirTemp_IsbL-0400_LatLon0.15_PT129H.grib2 2026-04-22 04:34 935K
20260422T00Z_MSC_GDPS_AirTemp_IsbL-0450_LatLon0.15_PT129H.grib2 2026-04-22 04:34 957K
20260422T00Z_MSC_GDPS_AirTemp_IsbL-0500_LatLon0.15_PT129H.grib2 2026-04-22 04:34 1.0M
20260422T00Z_MSC_GDPS_AirTemp_IsbL-0550_LatLon0.15_PT129H.grib2 2026-04-22 04:34 798K
20260422T00Z_MSC_GDPS_AirTemp_IsbL-0600_LatLon0.15_PT129H.grib2 2026-04-22 04:34 891K
20260422T00Z_MSC_GDPS_AirTemp_IsbL-0650_LatLon0.15_PT129H.grib2 2026-04-22 04:34 921K
20260422T00Z_MSC_GDPS_AirTemp_IsbL-0700_LatLon0.15_PT129H.grib2 2026-04-22 04:34 955K
20260422T00Z_MSC_GDPS_AirTemp_IsbL-0750_LatLon0.15_PT129H.grib2 2026-04-22 04:34 1.0M
20260422T00Z_MSC_GDPS_AirTemp_IsbL-0800_LatLon0.15_PT129H.grib2 2026-04-22 04:34 1.1M
20260422T00Z_MSC_GDPS_AirTemp_IsbL-0850_LatLon0.15_PT129H.grib2 2026-04-22 04:34 1.1M
20260422T00Z_MSC_GDPS_AirTemp_IsbL-0875_LatLon0.15_PT129H.grib2 2026-04-22 04:34 1.2M
20260422T00Z_MSC_GDPS_AirTemp_IsbL-0900_LatLon0.15_PT129H.grib2 2026-04-22 04:34 1.1M
20260422T00Z_MSC_GDPS_AirTemp_IsbL-0925_LatLon0.15_PT129H.grib2 2026-04-22 04:34 1.1M
20260422T00Z_MSC_GDPS_AirTemp_IsbL-0950_LatLon0.15_PT129H.grib2 2026-04-22 04:34 1.2M
20260422T00Z_MSC_GDPS_AirTemp_IsbL-0970_LatLon0.15_PT129H.grib2 2026-04-22 04:34 1.2M
20260422T00Z_MSC_GDPS_AirTemp_IsbL-0985_LatLon0.15_PT129H.grib2 2026-04-22 04:34 1.2M
20260422T00Z_MSC_GDPS_AirTemp_IsbL-1000_LatLon0.15_PT129H.grib2 2026-04-22 04:34 1.1M
20260422T00Z_MSC_GDPS_AirTemp_IsbL-1015_LatLon0.15_PT129H.grib2 2026-04-22 04:34 1.1M
20260422T00Z_MSC_GDPS_Albedo_Sfc_LatLon0.15_PT129H.grib2 2026-04-22 04:34 246K
20260422T00Z_MSC_GDPS_CAPE_Sfc_LatLon0.15_PT129H.grib2 2026-04-22 04:34 3.9M
20260422T00Z_MSC_GDPS_CIN_Sfc_LatLon0.15_PT129H.grib2 2026-04-22 04:34 3.0M
20260422T00Z_MSC_GDPS_CloudWater_EAtm_LatLon0.15_PT129H.grib2 2026-04-22 04:34 534K
20260422T00Z_MSC_GDPS_ConvectivePrecip-Accum_Sfc_LatLon0.15_PT129H.grib2 2026-04-22 04:34 3.5M
20260422T00Z_MSC_GDPS_DewPointDepression_AGL-2m_LatLon0.15_PT129H.grib2 2026-04-22 04:34 761K
20260422T00Z_MSC_GDPS_DewPointDepression_IsbL-0010_LatLon0.15_PT129H.grib2 2026-04-22 04:34 41K
20260422T00Z_MSC_GDPS_DewPointDepression_IsbL-0020_LatLon0.15_PT129H.grib2 2026-04-22 04:34 76K
20260422T00Z_MSC_GDPS_DewPointDepression_IsbL-0030_LatLon0.15_PT129H.grib2 2026-04-22 04:34 65K
20260422T00Z_MSC_GDPS_DewPointDepression_IsbL-0050_LatLon0.15_PT129H.grib2 2026-04-22 04:34 366K
20260422T00Z_MSC_GDPS_DewPointDepression_IsbL-0100_LatLon0.15_PT129H.grib2 2026-04-22 04:34 392K
20260422T00Z_MSC_GDPS_DewPointDepression_IsbL-0150_LatLon0.15_PT129H.grib2 2026-04-22 04:34 458K
20260422T00Z_MSC_GDPS_DewPointDepression_IsbL-0175_LatLon0.15_PT129H.grib2 2026-04-22 04:34 555K
20260422T00Z_MSC_GDPS_DewPointDepression_IsbL-0200_LatLon0.15_PT129H.grib2 2026-04-22 04:34 658K
20260422T00Z_MSC_GDPS_DewPointDepression_IsbL-0225_LatLon0.15_PT129H.grib2 2026-04-22 04:34 771K
20260422T00Z_MSC_GDPS_DewPointDepression_IsbL-0250_LatLon0.15_PT129H.grib2 2026-04-22 04:34 854K
20260422T00Z_MSC_GDPS_DewPointDepression_IsbL-0275_LatLon0.15_PT129H.grib2 2026-04-22 04:34 873K
20260422T00Z_MSC_GDPS_DewPointDepression_IsbL-0300_LatLon0.15_PT129H.grib2 2026-04-22 04:34 920K
20260422T00Z_MSC_GDPS_DewPointDepression_IsbL-0350_LatLon0.15_PT129H.grib2 2026-04-22 04:34 952K
20260422T00Z_MSC_GDPS_DewPointDepression_IsbL-0400_LatLon0.15_PT129H.grib2 2026-04-22 04:34 1.0M
20260422T00Z_MSC_GDPS_DewPointDepression_IsbL-0450_LatLon0.15_PT129H.grib2 2026-04-22 04:34 1.0M
20260422T00Z_MSC_GDPS_DewPointDepression_IsbL-0500_LatLon0.15_PT129H.grib2 2026-04-22 04:34 1.0M
20260422T00Z_MSC_GDPS_DewPointDepression_IsbL-0550_LatLon0.15_PT129H.grib2 2026-04-22 04:34 1.0M
20260422T00Z_MSC_GDPS_DewPointDepression_IsbL-0600_LatLon0.15_PT129H.grib2 2026-04-22 04:34 1.1M
20260422T00Z_MSC_GDPS_DewPointDepression_IsbL-0650_LatLon0.15_PT129H.grib2 2026-04-22 04:34 1.1M
20260422T00Z_MSC_GDPS_DewPointDepression_IsbL-0700_LatLon0.15_PT129H.grib2 2026-04-22 04:34 1.1M
20260422T00Z_MSC_GDPS_DewPointDepression_IsbL-0750_LatLon0.15_PT129H.grib2 2026-04-22 04:34 1.1M
20260422T00Z_MSC_GDPS_DewPointDepression_IsbL-0800_LatLon0.15_PT129H.grib2 2026-04-22 04:34 1.2M
20260422T00Z_MSC_GDPS_DewPointDepression_IsbL-0850_LatLon0.15_PT129H.grib2 2026-04-22 04:34 1.2M
20260422T00Z_MSC_GDPS_DewPointDepression_IsbL-0875_LatLon0.15_PT129H.grib2 2026-04-22 04:34 1.1M
20260422T00Z_MSC_GDPS_DewPointDepression_IsbL-0900_LatLon0.15_PT129H.grib2 2026-04-22 04:34 1.1M
20260422T00Z_MSC_GDPS_DewPointDepression_IsbL-0925_LatLon0.15_PT129H.grib2 2026-04-22 04:34 1.0M
20260422T00Z_MSC_GDPS_DewPointDepression_IsbL-0950_LatLon0.15_PT129H.grib2 2026-04-22 04:34 1.0M
20260422T00Z_MSC_GDPS_DewPointDepression_IsbL-0970_LatLon0.15_PT129H.grib2 2026-04-22 04:34 1.0M
20260422T00Z_MSC_GDPS_DewPointDepression_IsbL-0985_LatLon0.15_PT129H.grib2 2026-04-22 04:34 1.0M
20260422T00Z_MSC_GDPS_DewPointDepression_IsbL-1000_LatLon0.15_PT129H.grib2 2026-04-22 04:34 1.0M
20260422T00Z_MSC_GDPS_DewPointDepression_IsbL-1015_LatLon0.15_PT129H.grib2 2026-04-22 04:34 923K
20260422T00Z_MSC_GDPS_DewPoint_AGL-2m_LatLon0.15_PT129H.grib2 2026-04-22 04:34 611K
20260422T00Z_MSC_GDPS_DownwardLongwaveRadiationFlux-Accum_Sfc_LatLon0.15_PT129H.grib2 2026-04-22 04:34 818K
20260422T00Z_MSC_GDPS_DownwardShortwaveRadiationFlux-Accum_NTAtm_LatLon0.15_PT129H.grib2 2026-04-22 04:34 195K
20260422T00Z_MSC_GDPS_DownwardShortwaveRadiationFlux-Accum_Sfc_LatLon0.15_PT129H.grib2 2026-04-22 04:34 1.0M
20260422T00Z_MSC_GDPS_FreezingRain-Accum1h_Sfc_LatLon0.15_PT129H.grib2 2026-04-22 04:34 48K
20260422T00Z_MSC_GDPS_FreezingRain-Accum3h_Sfc_LatLon0.15_PT129H.grib2 2026-04-22 04:34 48K
20260422T00Z_MSC_GDPS_FreezingRain-Accum_Sfc_LatLon0.15_PT129H.grib2 2026-04-22 04:34 415K
20260422T00Z_MSC_GDPS_GeopotentialHeight_IsbL-0001_LatLon0.15_PT129H.grib2 2026-04-22 04:34 387K
20260422T00Z_MSC_GDPS_GeopotentialHeight_IsbL-0005_LatLon0.15_PT129H.grib2 2026-04-22 04:34 497K
20260422T00Z_MSC_GDPS_GeopotentialHeight_IsbL-0010_LatLon0.15_PT129H.grib2 2026-04-22 04:34 484K
20260422T00Z_MSC_GDPS_GeopotentialHeight_IsbL-0020_LatLon0.15_PT129H.grib2 2026-04-22 04:34 423K
20260422T00Z_MSC_GDPS_GeopotentialHeight_IsbL-0030_LatLon0.15_PT129H.grib2 2026-04-22 04:34 579K
20260422T00Z_MSC_GDPS_GeopotentialHeight_IsbL-0050_LatLon0.15_PT129H.grib2 2026-04-22 04:34 577K
20260422T00Z_MSC_GDPS_GeopotentialHeight_IsbL-0100_LatLon0.15_PT129H.grib2 2026-04-22 04:34 610K
20260422T00Z_MSC_GDPS_GeopotentialHeight_IsbL-0150_LatLon0.15_PT129H.grib2 2026-04-22 04:34 627K
20260422T00Z_MSC_GDPS_GeopotentialHeight_IsbL-0175_LatLon0.15_PT129H.grib2 2026-04-22 04:34 631K
20260422T00Z_MSC_GDPS_GeopotentialHeight_IsbL-0200_LatLon0.15_PT129H.grib2 2026-04-22 04:34 635K
20260422T00Z_MSC_GDPS_GeopotentialHeight_IsbL-0225_LatLon0.15_PT129H.grib2 2026-04-22 04:34 633K
20260422T00Z_MSC_GDPS_GeopotentialHeight_IsbL-0250_LatLon0.15_PT129H.grib2 2026-04-22 04:34 642K
20260422T00Z_MSC_GDPS_GeopotentialHeight_IsbL-0275_LatLon0.15_PT129H.grib2 2026-04-22 04:34 641K
20260422T00Z_MSC_GDPS_GeopotentialHeight_IsbL-0300_LatLon0.15_PT129H.grib2 2026-04-22 04:34 634K
20260422T00Z_MSC_GDPS_GeopotentialHeight_IsbL-0350_LatLon0.15_PT129H.grib2 2026-04-22 04:34 629K
20260422T00Z_MSC_GDPS_GeopotentialHeight_IsbL-0400_LatLon0.15_PT129H.grib2 2026-04-22 04:34 622K
20260422T00Z_MSC_GDPS_GeopotentialHeight_IsbL-0450_LatLon0.15_PT129H.grib2 2026-04-22 04:34 613K
20260422T00Z_MSC_GDPS_GeopotentialHeight_IsbL-0500_LatLon0.15_PT129H.grib2 2026-04-22 04:34 533K
20260422T00Z_MSC_GDPS_GeopotentialHeight_IsbL-0550_LatLon0.15_PT129H.grib2 2026-04-22 04:34 523K
20260422T00Z_MSC_GDPS_GeopotentialHeight_IsbL-0600_LatLon0.15_PT129H.grib2 2026-04-22 04:34 520K
20260422T00Z_MSC_GDPS_GeopotentialHeight_IsbL-0650_LatLon0.15_PT129H.grib2 2026-04-22 04:34 519K
20260422T00Z_MSC_GDPS_GeopotentialHeight_IsbL-0700_LatLon0.15_PT129H.grib2 2026-04-22 04:34 692K
20260422T00Z_MSC_GDPS_GeopotentialHeight_IsbL-0750_LatLon0.15_PT129H.grib2 2026-04-22 04:34 693K
20260422T00Z_MSC_GDPS_GeopotentialHeight_IsbL-0800_LatLon0.15_PT129H.grib2 2026-04-22 04:34 708K
20260422T00Z_MSC_GDPS_GeopotentialHeight_IsbL-0850_LatLon0.15_PT129H.grib2 2026-04-22 04:34 718K
20260422T00Z_MSC_GDPS_GeopotentialHeight_IsbL-0875_LatLon0.15_PT129H.grib2 2026-04-22 04:34 722K
20260422T00Z_MSC_GDPS_GeopotentialHeight_IsbL-0900_LatLon0.15_PT129H.grib2 2026-04-22 04:34 729K
20260422T00Z_MSC_GDPS_GeopotentialHeight_IsbL-0925_LatLon0.15_PT129H.grib2 2026-04-22 04:34 735K
20260422T00Z_MSC_GDPS_GeopotentialHeight_IsbL-0950_LatLon0.15_PT129H.grib2 2026-04-22 04:34 741K
20260422T00Z_MSC_GDPS_GeopotentialHeight_IsbL-0970_LatLon0.15_PT129H.grib2 2026-04-22 04:34 752K
20260422T00Z_MSC_GDPS_GeopotentialHeight_IsbL-0985_LatLon0.15_PT129H.grib2 2026-04-22 04:34 768K
20260422T00Z_MSC_GDPS_GeopotentialHeight_IsbL-1000_LatLon0.15_PT129H.grib2 2026-04-22 04:34 790K
20260422T00Z_MSC_GDPS_GeopotentialHeight_IsbL-1015_LatLon0.15_PT129H.grib2 2026-04-22 04:34 813K
20260422T00Z_MSC_GDPS_Humidex_Sfc_LatLon0.15_PT129H.grib2 2026-04-22 04:34 5.3M
20260422T00Z_MSC_GDPS_IcePellets-Accum1h_Sfc_LatLon0.15_PT129H.grib2 2026-04-22 04:34 16K
20260422T00Z_MSC_GDPS_IcePellets-Accum3h_Sfc_LatLon0.15_PT129H.grib2 2026-04-22 04:34 19K
20260422T00Z_MSC_GDPS_IcePellets-Accum_Sfc_LatLon0.15_PT129H.grib2 2026-04-22 04:34 157K
20260422T00Z_MSC_GDPS_KIndex_Sfc_LatLon0.15_PT129H.grib2 2026-04-22 04:34 6.5M
20260422T00Z_MSC_GDPS_LatentHeatNetFlux_Sfc_LatLon0.15_PT129H.grib2 2026-04-22 04:34 726K
20260422T00Z_MSC_GDPS_LiftedIndex-MU-VT_IsbL-0500_LatLon0.15_PT129H.grib2 2026-04-22 04:34 5.4M
20260422T00Z_MSC_GDPS_NetLongwaveRadiationFlux-Accum_Sfc_LatLon0.15_PT129H.grib2 2026-04-22 04:34 1.0M
20260422T00Z_MSC_GDPS_NetShortwaveRadiationFlux-Accum_Sfc_LatLon0.15_PT129H.grib2 2026-04-22 04:34 1.0M
20260422T00Z_MSC_GDPS_O3MixingRatio_LatLon0.15_PT129H.grib2 2026-04-22 04:59 1.9M
20260422T00Z_MSC_GDPS_O3_EAtm_LatLon0.15_PT129H.grib2 2026-04-22 04:59 2.4M
20260422T00Z_MSC_GDPS_PlanetaryBoundaryLayerHeight_Sfc_LatLon0.15_PT129H.grib2 2026-04-22 04:34 2.5M
20260422T00Z_MSC_GDPS_Precip-Accum1h_Sfc_LatLon0.15_PT129H.grib2 2026-04-22 04:34 3.5M
20260422T00Z_MSC_GDPS_Precip-Accum3h_Sfc_LatLon0.15_PT129H.grib2 2026-04-22 04:34 3.6M
20260422T00Z_MSC_GDPS_Precip-Accum_Sfc_LatLon0.15_PT129H.grib2 2026-04-22 04:34 5.2M
20260422T00Z_MSC_GDPS_PrecipRate_Sfc_LatLon0.15_PT129H.grib2 2026-04-22 04:34 3.1M
20260422T00Z_MSC_GDPS_PrecipType-Instant_Sfc_LatLon0.15_PT129H.grib2 2026-04-22 04:34 1.6M
20260422T00Z_MSC_GDPS_Pressure_MSL_LatLon0.15_PT129H.grib2 2026-04-22 04:34 723K
20260422T00Z_MSC_GDPS_Pressure_PVU-1.5_LatLon0.15_PT129H.grib2 2026-04-22 04:34 5.8M
20260422T00Z_MSC_GDPS_Pressure_PVU-1_LatLon0.15_PT129H.grib2 2026-04-22 04:34 6.0M
20260422T00Z_MSC_GDPS_Pressure_PVU-2_LatLon0.15_PT129H.grib2 2026-04-22 04:34 5.6M
20260422T00Z_MSC_GDPS_Pressure_Sfc_LatLon0.15_PT129H.grib2 2026-04-22 04:34 1.1M
20260422T00Z_MSC_GDPS_RadiativeTemp_Sfc_LatLon0.15_PT129H.grib2 2026-04-22 04:34 506K
20260422T00Z_MSC_GDPS_Rain-Accum1h_Sfc_LatLon0.15_PT129H.grib2 2026-04-22 04:34 1.8M
20260422T00Z_MSC_GDPS_Rain-Accum3h_Sfc_LatLon0.15_PT129H.grib2 2026-04-22 04:34 1.9M
20260422T00Z_MSC_GDPS_Rain-Accum_Sfc_LatLon0.15_PT129H.grib2 2026-04-22 04:34 4.0M
20260422T00Z_MSC_GDPS_RelativeHumidity_AGL-2m_LatLon0.15_PT129H.grib2 2026-04-22 04:34 1.1M
20260422T00Z_MSC_GDPS_RelativeHumidity_IsbL-0010_LatLon0.15_PT129H.grib2 2026-04-22 04:34 251K
20260422T00Z_MSC_GDPS_RelativeHumidity_IsbL-0020_LatLon0.15_PT129H.grib2 2026-04-22 04:34 258K
20260422T00Z_MSC_GDPS_RelativeHumidity_IsbL-0030_LatLon0.15_PT129H.grib2 2026-04-22 04:34 341K
20260422T00Z_MSC_GDPS_RelativeHumidity_IsbL-0050_LatLon0.15_PT129H.grib2 2026-04-22 04:34 411K
20260422T00Z_MSC_GDPS_RelativeHumidity_IsbL-0100_LatLon0.15_PT129H.grib2 2026-04-22 04:34 483K
20260422T00Z_MSC_GDPS_RelativeHumidity_IsbL-0150_LatLon0.15_PT129H.grib2 2026-04-22 04:34 648K
20260422T00Z_MSC_GDPS_RelativeHumidity_IsbL-0175_LatLon0.15_PT129H.grib2 2026-04-22 04:34 776K
20260422T00Z_MSC_GDPS_RelativeHumidity_IsbL-0200_LatLon0.15_PT129H.grib2 2026-04-22 04:34 690K
20260422T00Z_MSC_GDPS_RelativeHumidity_IsbL-0225_LatLon0.15_PT129H.grib2 2026-04-22 04:34 780K
20260422T00Z_MSC_GDPS_RelativeHumidity_IsbL-0250_LatLon0.15_PT129H.grib2 2026-04-22 04:34 860K
20260422T00Z_MSC_GDPS_RelativeHumidity_IsbL-0275_LatLon0.15_PT129H.grib2 2026-04-22 04:34 884K
20260422T00Z_MSC_GDPS_RelativeHumidity_IsbL-0300_LatLon0.15_PT129H.grib2 2026-04-22 04:34 930K
20260422T00Z_MSC_GDPS_RelativeHumidity_IsbL-0350_LatLon0.15_PT129H.grib2 2026-04-22 04:34 953K
20260422T00Z_MSC_GDPS_RelativeHumidity_IsbL-0400_LatLon0.15_PT129H.grib2 2026-04-22 04:34 1.0M
20260422T00Z_MSC_GDPS_RelativeHumidity_IsbL-0450_LatLon0.15_PT129H.grib2 2026-04-22 04:34 1.0M
20260422T00Z_MSC_GDPS_RelativeHumidity_IsbL-0500_LatLon0.15_PT129H.grib2 2026-04-22 04:34 1.0M
20260422T00Z_MSC_GDPS_RelativeHumidity_IsbL-0550_LatLon0.15_PT129H.grib2 2026-04-22 04:34 1.0M
20260422T00Z_MSC_GDPS_RelativeHumidity_IsbL-0600_LatLon0.15_PT129H.grib2 2026-04-22 04:34 1.1M
20260422T00Z_MSC_GDPS_RelativeHumidity_IsbL-0650_LatLon0.15_PT129H.grib2 2026-04-22 04:34 1.1M
20260422T00Z_MSC_GDPS_RelativeHumidity_IsbL-0700_LatLon0.15_PT129H.grib2 2026-04-22 04:34 1.1M
20260422T00Z_MSC_GDPS_RelativeHumidity_IsbL-0750_LatLon0.15_PT129H.grib2 2026-04-22 04:34 1.2M
20260422T00Z_MSC_GDPS_RelativeHumidity_IsbL-0800_LatLon0.15_PT129H.grib2 2026-04-22 04:34 1.2M
20260422T00Z_MSC_GDPS_RelativeHumidity_IsbL-0850_LatLon0.15_PT129H.grib2 2026-04-22 04:34 1.3M
20260422T00Z_MSC_GDPS_RelativeHumidity_IsbL-0875_LatLon0.15_PT129H.grib2 2026-04-22 04:34 1.3M
20260422T00Z_MSC_GDPS_RelativeHumidity_IsbL-0900_LatLon0.15_PT129H.grib2 2026-04-22 04:34 1.2M
20260422T00Z_MSC_GDPS_RelativeHumidity_IsbL-0925_LatLon0.15_PT129H.grib2 2026-04-22 04:34 1.2M
20260422T00Z_MSC_GDPS_RelativeHumidity_IsbL-0950_LatLon0.15_PT129H.grib2 2026-04-22 04:34 1.2M
20260422T00Z_MSC_GDPS_RelativeHumidity_IsbL-0970_LatLon0.15_PT129H.grib2 2026-04-22 04:34 1.2M
20260422T00Z_MSC_GDPS_RelativeHumidity_IsbL-0985_LatLon0.15_PT129H.grib2 2026-04-22 04:34 1.1M
20260422T00Z_MSC_GDPS_RelativeHumidity_IsbL-1000_LatLon0.15_PT129H.grib2 2026-04-22 04:34 1.1M
20260422T00Z_MSC_GDPS_RelativeHumidity_IsbL-1015_LatLon0.15_PT129H.grib2 2026-04-22 04:34 1.1M
20260422T00Z_MSC_GDPS_RelativeVorticity_IsbL-0200_LatLon0.15_PT129H.grib2 2026-04-22 04:34 1.5M
20260422T00Z_MSC_GDPS_RelativeVorticity_IsbL-0250_LatLon0.15_PT129H.grib2 2026-04-22 04:34 1.5M
20260422T00Z_MSC_GDPS_RelativeVorticity_IsbL-0500_LatLon0.15_PT129H.grib2 2026-04-22 04:34 1.2M
20260422T00Z_MSC_GDPS_RelativeVorticity_IsbL-0700_LatLon0.15_PT129H.grib2 2026-04-22 04:34 1.3M
20260422T00Z_MSC_GDPS_RelativeVorticity_IsbL-0850_LatLon0.15_PT129H.grib2 2026-04-22 04:34 1.6M
20260422T00Z_MSC_GDPS_Runoff-Accum_Sfc_LatLon0.15_PT129H.grib2 2026-04-22 04:34 136K
20260422T00Z_MSC_GDPS_SensibleHeatNetFlux_Sfc_LatLon0.15_PT129H.grib2 2026-04-22 04:34 496K
20260422T00Z_MSC_GDPS_ShowalterIndex_IsbL-0500_LatLon0.15_PT129H.grib2 2026-04-22 04:34 6.2M
20260422T00Z_MSC_GDPS_Snow-Accum1h_Sfc_LatLon0.15_PT129H.grib2 2026-04-22 04:34 1.0M
20260422T00Z_MSC_GDPS_Snow-Accum3h_Sfc_LatLon0.15_PT129H.grib2 2026-04-22 04:34 1.1M
20260422T00Z_MSC_GDPS_Snow-Accum_Sfc_LatLon0.15_PT129H.grib2 2026-04-22 04:34 2.0M
20260422T00Z_MSC_GDPS_SnowDensity_Sfc_LatLon0.15_PT129H.grib2 2026-04-22 04:34 270K
20260422T00Z_MSC_GDPS_SnowDepth_Sfc_LatLon0.15_PT129H.grib2 2026-04-22 04:34 1.8M
20260422T00Z_MSC_GDPS_SoilTemp_DBS-0to10cm_LatLon0.15_PT129H.grib2 2026-04-22 04:34 510K
20260422T00Z_MSC_GDPS_SoilTemp_Sfc_LatLon0.15_PT129H.grib2 2026-04-22 04:34 592K
20260422T00Z_MSC_GDPS_SoilVolumetricIceContent_Sfc_LatLon0.15_PT129H.grib2 2026-04-22 04:34 213K
20260422T00Z_MSC_GDPS_SoilVolumetricWaterContent_DBS-0to10cm_LatLon0.15_PT129H.grib2 2026-04-22 04:34 571K
20260422T00Z_MSC_GDPS_SoilVolumetricWaterContent_DBS-0to1cm_LatLon0.15_PT129H.grib2 2026-04-22 04:34 655K
20260422T00Z_MSC_GDPS_SpecificHumidity_AGL-120m_LatLon0.15_PT129H.grib2 2026-04-22 04:34 1.1M
20260422T00Z_MSC_GDPS_SpecificHumidity_AGL-2m_LatLon0.15_PT129H.grib2 2026-04-22 04:34 1.2M
20260422T00Z_MSC_GDPS_SpecificHumidity_AGL-40m_LatLon0.15_PT129H.grib2 2026-04-22 04:34 1.1M
20260422T00Z_MSC_GDPS_SpecificHumidity_AGL-80m_LatLon0.15_PT129H.grib2 2026-04-22 04:34 1.1M
20260422T00Z_MSC_GDPS_SpecificHumidity_IsbL-0001_LatLon0.15_PT129H.grib2 2026-04-22 04:34 1.2M
20260422T00Z_MSC_GDPS_SpecificHumidity_IsbL-0005_LatLon0.15_PT129H.grib2 2026-04-22 04:34 1.4M
20260422T00Z_MSC_GDPS_SpecificHumidity_IsbL-0010_LatLon0.15_PT129H.grib2 2026-04-22 04:34 1.2M
20260422T00Z_MSC_GDPS_SpecificHumidity_IsbL-0020_LatLon0.15_PT129H.grib2 2026-04-22 04:34 1.3M
20260422T00Z_MSC_GDPS_SpecificHumidity_IsbL-0030_LatLon0.15_PT129H.grib2 2026-04-22 04:34 1.6M
20260422T00Z_MSC_GDPS_SpecificHumidity_IsbL-0050_LatLon0.15_PT129H.grib2 2026-04-22 04:34 1.3M
20260422T00Z_MSC_GDPS_SpecificHumidity_IsbL-0100_LatLon0.15_PT129H.grib2 2026-04-22 04:34 1.3M
20260422T00Z_MSC_GDPS_SpecificHumidity_IsbL-0150_LatLon0.15_PT129H.grib2 2026-04-22 04:34 1.2M
20260422T00Z_MSC_GDPS_SpecificHumidity_IsbL-0175_LatLon0.15_PT129H.grib2 2026-04-22 04:34 1.3M
20260422T00Z_MSC_GDPS_SpecificHumidity_IsbL-0200_LatLon0.15_PT129H.grib2 2026-04-22 04:34 1.3M
20260422T00Z_MSC_GDPS_SpecificHumidity_IsbL-0225_LatLon0.15_PT129H.grib2 2026-04-22 04:34 1.3M
20260422T00Z_MSC_GDPS_SpecificHumidity_IsbL-0250_LatLon0.15_PT129H.grib2 2026-04-22 04:34 1.4M
20260422T00Z_MSC_GDPS_SpecificHumidity_IsbL-0275_LatLon0.15_PT129H.grib2 2026-04-22 04:34 1.3M
20260422T00Z_MSC_GDPS_SpecificHumidity_IsbL-0300_LatLon0.15_PT129H.grib2 2026-04-22 04:34 1.2M
20260422T00Z_MSC_GDPS_SpecificHumidity_IsbL-0350_LatLon0.15_PT129H.grib2 2026-04-22 04:34 1.5M
20260422T00Z_MSC_GDPS_SpecificHumidity_IsbL-0400_LatLon0.15_PT129H.grib2 2026-04-22 04:34 1.5M
20260422T00Z_MSC_GDPS_SpecificHumidity_IsbL-0450_LatLon0.15_PT129H.grib2 2026-04-22 04:34 1.6M
20260422T00Z_MSC_GDPS_SpecificHumidity_IsbL-0500_LatLon0.15_PT129H.grib2 2026-04-22 04:34 1.4M
20260422T00Z_MSC_GDPS_SpecificHumidity_IsbL-0550_LatLon0.15_PT129H.grib2 2026-04-22 04:34 1.6M
20260422T00Z_MSC_GDPS_SpecificHumidity_IsbL-0600_LatLon0.15_PT129H.grib2 2026-04-22 04:34 1.7M
20260422T00Z_MSC_GDPS_SpecificHumidity_IsbL-0650_LatLon0.15_PT129H.grib2 2026-04-22 04:34 1.5M
20260422T00Z_MSC_GDPS_SpecificHumidity_IsbL-0700_LatLon0.15_PT129H.grib2 2026-04-22 04:34 1.6M
20260422T00Z_MSC_GDPS_SpecificHumidity_IsbL-0750_LatLon0.15_PT129H.grib2 2026-04-22 04:34 1.7M
20260422T00Z_MSC_GDPS_SpecificHumidity_IsbL-0800_LatLon0.15_PT129H.grib2 2026-04-22 04:34 1.9M
20260422T00Z_MSC_GDPS_SpecificHumidity_IsbL-0850_LatLon0.15_PT129H.grib2 2026-04-22 04:34 1.9M
20260422T00Z_MSC_GDPS_SpecificHumidity_IsbL-0875_LatLon0.15_PT129H.grib2 2026-04-22 04:34 1.9M
20260422T00Z_MSC_GDPS_SpecificHumidity_IsbL-0900_LatLon0.15_PT129H.grib2 2026-04-22 04:34 1.6M
20260422T00Z_MSC_GDPS_SpecificHumidity_IsbL-0925_LatLon0.15_PT129H.grib2 2026-04-22 04:34 1.6M
20260422T00Z_MSC_GDPS_SpecificHumidity_IsbL-0950_LatLon0.15_PT129H.grib2 2026-04-22 04:34 1.5M
20260422T00Z_MSC_GDPS_SpecificHumidity_IsbL-0970_LatLon0.15_PT129H.grib2 2026-04-22 04:34 1.5M
20260422T00Z_MSC_GDPS_SpecificHumidity_IsbL-0985_LatLon0.15_PT129H.grib2 2026-04-22 04:34 1.5M
20260422T00Z_MSC_GDPS_SpecificHumidity_IsbL-1000_LatLon0.15_PT129H.grib2 2026-04-22 04:34 1.5M
20260422T00Z_MSC_GDPS_SpecificHumidity_IsbL-1015_LatLon0.15_PT129H.grib2 2026-04-22 04:34 1.4M
20260422T00Z_MSC_GDPS_SpecificHumidity_Sfc_LatLon0.15_PT129H.grib2 2026-04-22 04:34 679K
20260422T00Z_MSC_GDPS_Thickness_IsbL-0850to0700_LatLon0.15_PT129H.grib2 2026-04-22 04:34 467K
20260422T00Z_MSC_GDPS_Thickness_IsbL-1000to0500_LatLon0.15_PT129H.grib2 2026-04-22 04:34 372K
20260422T00Z_MSC_GDPS_Thickness_IsbL-1000to0850_LatLon0.15_PT129H.grib2 2026-04-22 04:34 491K
20260422T00Z_MSC_GDPS_TotalCloudCover_Sfc_LatLon0.15_PT129H.grib2 2026-04-22 04:34 838K
20260422T00Z_MSC_GDPS_TotalTotalsIndex_Sfc_LatLon0.15_PT129H.grib2 2026-04-22 04:34 6.2M
20260422T00Z_MSC_GDPS_UVIndex-ClearSky_Sfc_LatLon0.15_PT129H.grib2 2026-04-22 04:59 1.1M
20260422T00Z_MSC_GDPS_UVIndex_Sfc_LatLon0.15_PT129H.grib2 2026-04-22 04:59 1.5M
20260422T00Z_MSC_GDPS_UpwardLongwaveRadiationFlux_NTAtm_LatLon0.15_PT129H.grib2 2026-04-22 04:34 843K
20260422T00Z_MSC_GDPS_VerticalVelocity_IsbL-0200_LatLon0.15_PT129H.grib2 2026-04-22 04:34 1.1M
20260422T00Z_MSC_GDPS_VerticalVelocity_IsbL-0250_LatLon0.15_PT129H.grib2 2026-04-22 04:34 1.0M
20260422T00Z_MSC_GDPS_VerticalVelocity_IsbL-0500_LatLon0.15_PT129H.grib2 2026-04-22 04:34 1.0M
20260422T00Z_MSC_GDPS_VerticalVelocity_IsbL-0600_LatLon0.15_PT129H.grib2 2026-04-22 04:34 1.1M
20260422T00Z_MSC_GDPS_VerticalVelocity_IsbL-0700_LatLon0.15_PT129H.grib2 2026-04-22 04:34 1.2M
20260422T00Z_MSC_GDPS_VerticalVelocity_IsbL-0850_LatLon0.15_PT129H.grib2 2026-04-22 04:34 1.3M
20260422T00Z_MSC_GDPS_WindChill_Sfc_LatLon0.15_PT129H.grib2 2026-04-22 04:34 5.3M
20260422T00Z_MSC_GDPS_WindDir_AGL-10m_LatLon0.15_PT129H.grib2 2026-04-22 04:34 1.3M
20260422T00Z_MSC_GDPS_WindDir_AGL-120m_LatLon0.15_PT129H.grib2 2026-04-22 04:34 1.3M
20260422T00Z_MSC_GDPS_WindDir_AGL-40m_LatLon0.15_PT129H.grib2 2026-04-22 04:34 1.4M
20260422T00Z_MSC_GDPS_WindDir_AGL-80m_LatLon0.15_PT129H.grib2 2026-04-22 04:34 1.4M
20260422T00Z_MSC_GDPS_WindDir_IsbL-0001_LatLon0.15_PT129H.grib2 2026-04-22 04:34 651K
20260422T00Z_MSC_GDPS_WindDir_IsbL-0005_LatLon0.15_PT129H.grib2 2026-04-22 04:34 784K
20260422T00Z_MSC_GDPS_WindDir_IsbL-0010_LatLon0.15_PT129H.grib2 2026-04-22 04:34 852K
20260422T00Z_MSC_GDPS_WindDir_IsbL-0020_LatLon0.15_PT129H.grib2 2026-04-22 04:34 927K
20260422T00Z_MSC_GDPS_WindDir_IsbL-0030_LatLon0.15_PT129H.grib2 2026-04-22 04:34 923K
20260422T00Z_MSC_GDPS_WindDir_IsbL-0050_LatLon0.15_PT129H.grib2 2026-04-22 04:34 946K
20260422T00Z_MSC_GDPS_WindDir_IsbL-0100_LatLon0.15_PT129H.grib2 2026-04-22 04:34 1.0M
20260422T00Z_MSC_GDPS_WindDir_IsbL-0150_LatLon0.15_PT129H.grib2 2026-04-22 04:34 1.0M
20260422T00Z_MSC_GDPS_WindDir_IsbL-0175_LatLon0.15_PT129H.grib2 2026-04-22 04:34 1.0M
20260422T00Z_MSC_GDPS_WindDir_IsbL-0200_LatLon0.15_PT129H.grib2 2026-04-22 04:34 1.1M
20260422T00Z_MSC_GDPS_WindDir_IsbL-0225_LatLon0.15_PT129H.grib2 2026-04-22 04:34 1.1M
20260422T00Z_MSC_GDPS_WindDir_IsbL-0250_LatLon0.15_PT129H.grib2 2026-04-22 04:34 1.1M
20260422T00Z_MSC_GDPS_WindDir_IsbL-0275_LatLon0.15_PT129H.grib2 2026-04-22 04:34 1.2M
20260422T00Z_MSC_GDPS_WindDir_IsbL-0300_LatLon0.15_PT129H.grib2 2026-04-22 04:34 1.2M
20260422T00Z_MSC_GDPS_WindDir_IsbL-0350_LatLon0.15_PT129H.grib2 2026-04-22 04:34 1.2M
20260422T00Z_MSC_GDPS_WindDir_IsbL-0400_LatLon0.15_PT129H.grib2 2026-04-22 04:34 1.2M
20260422T00Z_MSC_GDPS_WindDir_IsbL-0450_LatLon0.15_PT129H.grib2 2026-04-22 04:34 1.3M
20260422T00Z_MSC_GDPS_WindDir_IsbL-0500_LatLon0.15_PT129H.grib2 2026-04-22 04:34 1.3M
20260422T00Z_MSC_GDPS_WindDir_IsbL-0550_LatLon0.15_PT129H.grib2 2026-04-22 04:34 1.4M
20260422T00Z_MSC_GDPS_WindDir_IsbL-0600_LatLon0.15_PT129H.grib2 2026-04-22 04:34 1.5M
20260422T00Z_MSC_GDPS_WindDir_IsbL-0650_LatLon0.15_PT129H.grib2 2026-04-22 04:34 1.5M
20260422T00Z_MSC_GDPS_WindDir_IsbL-0700_LatLon0.15_PT129H.grib2 2026-04-22 04:34 1.6M
20260422T00Z_MSC_GDPS_WindDir_IsbL-0750_LatLon0.15_PT129H.grib2 2026-04-22 04:34 1.7M
20260422T00Z_MSC_GDPS_WindDir_IsbL-0800_LatLon0.15_PT129H.grib2 2026-04-22 04:34 1.8M
20260422T00Z_MSC_GDPS_WindDir_IsbL-0850_LatLon0.15_PT129H.grib2 2026-04-22 04:34 1.9M
20260422T00Z_MSC_GDPS_WindDir_IsbL-0875_LatLon0.15_PT129H.grib2 2026-04-22 04:34 1.9M
20260422T00Z_MSC_GDPS_WindDir_IsbL-0900_LatLon0.15_PT129H.grib2 2026-04-22 04:34 2.0M
20260422T00Z_MSC_GDPS_WindDir_IsbL-0925_LatLon0.15_PT129H.grib2 2026-04-22 04:34 2.0M
20260422T00Z_MSC_GDPS_WindDir_IsbL-0950_LatLon0.15_PT129H.grib2 2026-04-22 04:34 2.0M
20260422T00Z_MSC_GDPS_WindDir_IsbL-0970_LatLon0.15_PT129H.grib2 2026-04-22 04:34 2.0M
20260422T00Z_MSC_GDPS_WindDir_IsbL-0985_LatLon0.15_PT129H.grib2 2026-04-22 04:34 2.0M
20260422T00Z_MSC_GDPS_WindDir_IsbL-1000_LatLon0.15_PT129H.grib2 2026-04-22 04:34 2.0M
20260422T00Z_MSC_GDPS_WindDir_IsbL-1015_LatLon0.15_PT129H.grib2 2026-04-22 04:34 2.0M
20260422T00Z_MSC_GDPS_WindGust-Max_AGL-10m_LatLon0.15_PT129H.grib2 2026-04-22 04:34 2.2M
20260422T00Z_MSC_GDPS_WindGust-Min_AGL-10m_LatLon0.15_PT129H.grib2 2026-04-22 04:34 2.2M
20260422T00Z_MSC_GDPS_WindGust_AGL-10m_LatLon0.15_PT129H.grib2 2026-04-22 04:34 2.2M
20260422T00Z_MSC_GDPS_WindSpeed_AGL-10m_LatLon0.15_PT129H.grib2 2026-04-22 04:34 1.1M
20260422T00Z_MSC_GDPS_WindSpeed_AGL-120m_LatLon0.15_PT129H.grib2 2026-04-22 04:34 1.2M
20260422T00Z_MSC_GDPS_WindSpeed_AGL-40m_LatLon0.15_PT129H.grib2 2026-04-22 04:34 1.2M
20260422T00Z_MSC_GDPS_WindSpeed_AGL-80m_LatLon0.15_PT129H.grib2 2026-04-22 04:34 1.2M
20260422T00Z_MSC_GDPS_WindSpeed_IsbL-0001_LatLon0.15_PT129H.grib2 2026-04-22 04:34 638K
20260422T00Z_MSC_GDPS_WindSpeed_IsbL-0005_LatLon0.15_PT129H.grib2 2026-04-22 04:34 609K
20260422T00Z_MSC_GDPS_WindSpeed_IsbL-0010_LatLon0.15_PT129H.grib2 2026-04-22 04:34 624K
20260422T00Z_MSC_GDPS_WindSpeed_IsbL-0020_LatLon0.15_PT129H.grib2 2026-04-22 04:34 854K
20260422T00Z_MSC_GDPS_WindSpeed_IsbL-0030_LatLon0.15_PT129H.grib2 2026-04-22 04:34 853K
20260422T00Z_MSC_GDPS_WindSpeed_IsbL-0050_LatLon0.15_PT129H.grib2 2026-04-22 04:34 1.0M
20260422T00Z_MSC_GDPS_WindSpeed_IsbL-0100_LatLon0.15_PT129H.grib2 2026-04-22 04:34 1.1M
20260422T00Z_MSC_GDPS_WindSpeed_IsbL-0150_LatLon0.15_PT129H.grib2 2026-04-22 04:34 1.0M
20260422T00Z_MSC_GDPS_WindSpeed_IsbL-0175_LatLon0.15_PT129H.grib2 2026-04-22 04:34 1.0M
20260422T00Z_MSC_GDPS_WindSpeed_IsbL-0200_LatLon0.15_PT129H.grib2 2026-04-22 04:34 1.0M
20260422T00Z_MSC_GDPS_WindSpeed_IsbL-0225_LatLon0.15_PT129H.grib2 2026-04-22 04:34 1.1M
20260422T00Z_MSC_GDPS_WindSpeed_IsbL-0250_LatLon0.15_PT129H.grib2 2026-04-22 04:34 1.1M
20260422T00Z_MSC_GDPS_WindSpeed_IsbL-0275_LatLon0.15_PT129H.grib2 2026-04-22 04:34 1.1M
20260422T00Z_MSC_GDPS_WindSpeed_IsbL-0300_LatLon0.15_PT129H.grib2 2026-04-22 04:34 1.1M
20260422T00Z_MSC_GDPS_WindSpeed_IsbL-0350_LatLon0.15_PT129H.grib2 2026-04-22 04:34 1.1M
20260422T00Z_MSC_GDPS_WindSpeed_IsbL-0400_LatLon0.15_PT129H.grib2 2026-04-22 04:34 1.1M
20260422T00Z_MSC_GDPS_WindSpeed_IsbL-0450_LatLon0.15_PT129H.grib2 2026-04-22 04:34 1.1M
20260422T00Z_MSC_GDPS_WindSpeed_IsbL-0500_LatLon0.15_PT129H.grib2 2026-04-22 04:34 1.1M
20260422T00Z_MSC_GDPS_WindSpeed_IsbL-0550_LatLon0.15_PT129H.grib2 2026-04-22 04:34 1.1M
20260422T00Z_MSC_GDPS_WindSpeed_IsbL-0600_LatLon0.15_PT129H.grib2 2026-04-22 04:34 1.4M
20260422T00Z_MSC_GDPS_WindSpeed_IsbL-0650_LatLon0.15_PT129H.grib2 2026-04-22 04:34 1.4M
20260422T00Z_MSC_GDPS_WindSpeed_IsbL-0700_LatLon0.15_PT129H.grib2 2026-04-22 04:34 1.5M
20260422T00Z_MSC_GDPS_WindSpeed_IsbL-0750_LatLon0.15_PT129H.grib2 2026-04-22 04:34 1.6M
20260422T00Z_MSC_GDPS_WindSpeed_IsbL-0800_LatLon0.15_PT129H.grib2 2026-04-22 04:34 1.7M
20260422T00Z_MSC_GDPS_WindSpeed_IsbL-0850_LatLon0.15_PT129H.grib2 2026-04-22 04:34 1.7M
20260422T00Z_MSC_GDPS_WindSpeed_IsbL-0875_LatLon0.15_PT129H.grib2 2026-04-22 04:34 1.8M
20260422T00Z_MSC_GDPS_WindSpeed_IsbL-0900_LatLon0.15_PT129H.grib2 2026-04-22 04:34 1.8M
20260422T00Z_MSC_GDPS_WindSpeed_IsbL-0925_LatLon0.15_PT129H.grib2 2026-04-22 04:34 1.8M
20260422T00Z_MSC_GDPS_WindSpeed_IsbL-0950_LatLon0.15_PT129H.grib2 2026-04-22 04:34 1.9M
20260422T00Z_MSC_GDPS_WindSpeed_IsbL-0970_LatLon0.15_PT129H.grib2 2026-04-22 04:34 1.9M
20260422T00Z_MSC_GDPS_WindSpeed_IsbL-0985_LatLon0.15_PT129H.grib2 2026-04-22 04:34 1.9M
20260422T00Z_MSC_GDPS_WindSpeed_IsbL-1000_LatLon0.15_PT129H.grib2 2026-04-22 04:34 1.9M
20260422T00Z_MSC_GDPS_WindSpeed_IsbL-1015_LatLon0.15_PT129H.grib2 2026-04-22 04:34 1.8M
20260422T00Z_MSC_GDPS_WindU_AGL-10m_LatLon0.15_PT129H.grib2 2026-04-22 04:34 1.6M
20260422T00Z_MSC_GDPS_WindU_AGL-120m_LatLon0.15_PT129H.grib2 2026-04-22 04:34 971K
20260422T00Z_MSC_GDPS_WindU_AGL-40m_LatLon0.15_PT129H.grib2 2026-04-22 04:34 968K
20260422T00Z_MSC_GDPS_WindU_AGL-80m_LatLon0.15_PT129H.grib2 2026-04-22 04:34 972K
20260422T00Z_MSC_GDPS_WindU_IsbL-0001_LatLon0.15_PT129H.grib2 2026-04-22 04:34 497K
20260422T00Z_MSC_GDPS_WindU_IsbL-0005_LatLon0.15_PT129H.grib2 2026-04-22 04:34 688K
20260422T00Z_MSC_GDPS_WindU_IsbL-0010_LatLon0.15_PT129H.grib2 2026-04-22 04:34 700K
20260422T00Z_MSC_GDPS_WindU_IsbL-0020_LatLon0.15_PT129H.grib2 2026-04-22 04:34 731K
20260422T00Z_MSC_GDPS_WindU_IsbL-0030_LatLon0.15_PT129H.grib2 2026-04-22 04:34 734K
20260422T00Z_MSC_GDPS_WindU_IsbL-0050_LatLon0.15_PT129H.grib2 2026-04-22 04:34 690K
20260422T00Z_MSC_GDPS_WindU_IsbL-0100_LatLon0.15_PT129H.grib2 2026-04-22 04:34 903K
20260422T00Z_MSC_GDPS_WindU_IsbL-0150_LatLon0.15_PT129H.grib2 2026-04-22 04:34 1.0M
20260422T00Z_MSC_GDPS_WindU_IsbL-0175_LatLon0.15_PT129H.grib2 2026-04-22 04:34 805K
20260422T00Z_MSC_GDPS_WindU_IsbL-0200_LatLon0.15_PT129H.grib2 2026-04-22 04:34 835K
20260422T00Z_MSC_GDPS_WindU_IsbL-0225_LatLon0.15_PT129H.grib2 2026-04-22 04:34 847K
20260422T00Z_MSC_GDPS_WindU_IsbL-0250_LatLon0.15_PT129H.grib2 2026-04-22 04:34 849K
20260422T00Z_MSC_GDPS_WindU_IsbL-0275_LatLon0.15_PT129H.grib2 2026-04-22 04:34 877K
20260422T00Z_MSC_GDPS_WindU_IsbL-0300_LatLon0.15_PT129H.grib2 2026-04-22 04:34 869K
20260422T00Z_MSC_GDPS_WindU_IsbL-0350_LatLon0.15_PT129H.grib2 2026-04-22 04:34 883K
20260422T00Z_MSC_GDPS_WindU_IsbL-0400_LatLon0.15_PT129H.grib2 2026-04-22 04:34 883K
20260422T00Z_MSC_GDPS_WindU_IsbL-0450_LatLon0.15_PT129H.grib2 2026-04-22 04:34 1.1M
20260422T00Z_MSC_GDPS_WindU_IsbL-0500_LatLon0.15_PT129H.grib2 2026-04-22 04:34 1.1M
20260422T00Z_MSC_GDPS_WindU_IsbL-0550_LatLon0.15_PT129H.grib2 2026-04-22 04:34 1.1M
20260422T00Z_MSC_GDPS_WindU_IsbL-0600_LatLon0.15_PT129H.grib2 2026-04-22 04:34 1.1M
20260422T00Z_MSC_GDPS_WindU_IsbL-0650_LatLon0.15_PT129H.grib2 2026-04-22 04:34 1.2M
20260422T00Z_MSC_GDPS_WindU_IsbL-0700_LatLon0.15_PT129H.grib2 2026-04-22 04:34 1.2M
20260422T00Z_MSC_GDPS_WindU_IsbL-0750_LatLon0.15_PT129H.grib2 2026-04-22 04:34 1.3M
20260422T00Z_MSC_GDPS_WindU_IsbL-0800_LatLon0.15_PT129H.grib2 2026-04-22 04:34 1.3M
20260422T00Z_MSC_GDPS_WindU_IsbL-0850_LatLon0.15_PT129H.grib2 2026-04-22 04:34 1.4M
20260422T00Z_MSC_GDPS_WindU_IsbL-0875_LatLon0.15_PT129H.grib2 2026-04-22 04:34 1.4M
20260422T00Z_MSC_GDPS_WindU_IsbL-0900_LatLon0.15_PT129H.grib2 2026-04-22 04:34 1.5M
20260422T00Z_MSC_GDPS_WindU_IsbL-0925_LatLon0.15_PT129H.grib2 2026-04-22 04:34 1.5M
20260422T00Z_MSC_GDPS_WindU_IsbL-0950_LatLon0.15_PT129H.grib2 2026-04-22 04:34 1.4M
20260422T00Z_MSC_GDPS_WindU_IsbL-0970_LatLon0.15_PT129H.grib2 2026-04-22 04:34 1.4M
20260422T00Z_MSC_GDPS_WindU_IsbL-0985_LatLon0.15_PT129H.grib2 2026-04-22 04:34 1.4M
20260422T00Z_MSC_GDPS_WindU_IsbL-1000_LatLon0.15_PT129H.grib2 2026-04-22 04:34 1.4M
20260422T00Z_MSC_GDPS_WindU_IsbL-1015_LatLon0.15_PT129H.grib2 2026-04-22 04:34 1.7M
20260422T00Z_MSC_GDPS_WindV_AGL-10m_LatLon0.15_PT129H.grib2 2026-04-22 04:34 1.3M
20260422T00Z_MSC_GDPS_WindV_AGL-120m_LatLon0.15_PT129H.grib2 2026-04-22 04:34 1.0M
20260422T00Z_MSC_GDPS_WindV_AGL-40m_LatLon0.15_PT129H.grib2 2026-04-22 04:34 970K
20260422T00Z_MSC_GDPS_WindV_AGL-80m_LatLon0.15_PT129H.grib2 2026-04-22 04:34 1.0M
20260422T00Z_MSC_GDPS_WindV_IsbL-0001_LatLon0.15_PT129H.grib2 2026-04-22 04:34 701K
20260422T00Z_MSC_GDPS_WindV_IsbL-0005_LatLon0.15_PT129H.grib2 2026-04-22 04:34 757K
20260422T00Z_MSC_GDPS_WindV_IsbL-0010_LatLon0.15_PT129H.grib2 2026-04-22 04:34 786K
20260422T00Z_MSC_GDPS_WindV_IsbL-0020_LatLon0.15_PT129H.grib2 2026-04-22 04:34 845K
20260422T00Z_MSC_GDPS_WindV_IsbL-0030_LatLon0.15_PT129H.grib2 2026-04-22 04:34 843K
20260422T00Z_MSC_GDPS_WindV_IsbL-0050_LatLon0.15_PT129H.grib2 2026-04-22 04:34 1.0M
20260422T00Z_MSC_GDPS_WindV_IsbL-0100_LatLon0.15_PT129H.grib2 2026-04-22 04:34 1.0M
20260422T00Z_MSC_GDPS_WindV_IsbL-0150_LatLon0.15_PT129H.grib2 2026-04-22 04:34 973K
20260422T00Z_MSC_GDPS_WindV_IsbL-0175_LatLon0.15_PT129H.grib2 2026-04-22 04:34 1.0M
20260422T00Z_MSC_GDPS_WindV_IsbL-0200_LatLon0.15_PT129H.grib2 2026-04-22 04:34 833K
20260422T00Z_MSC_GDPS_WindV_IsbL-0225_LatLon0.15_PT129H.grib2 2026-04-22 04:34 845K
20260422T00Z_MSC_GDPS_WindV_IsbL-0250_LatLon0.15_PT129H.grib2 2026-04-22 04:34 845K
20260422T00Z_MSC_GDPS_WindV_IsbL-0275_LatLon0.15_PT129H.grib2 2026-04-22 04:34 870K
20260422T00Z_MSC_GDPS_WindV_IsbL-0300_LatLon0.15_PT129H.grib2 2026-04-22 04:34 860K
20260422T00Z_MSC_GDPS_WindV_IsbL-0350_LatLon0.15_PT129H.grib2 2026-04-22 04:34 873K
20260422T00Z_MSC_GDPS_WindV_IsbL-0400_LatLon0.15_PT129H.grib2 2026-04-22 04:34 873K
20260422T00Z_MSC_GDPS_WindV_IsbL-0450_LatLon0.15_PT129H.grib2 2026-04-22 04:34 1.1M
20260422T00Z_MSC_GDPS_WindV_IsbL-0500_LatLon0.15_PT129H.grib2 2026-04-22 04:34 1.1M
20260422T00Z_MSC_GDPS_WindV_IsbL-0550_LatLon0.15_PT129H.grib2 2026-04-22 04:34 1.1M
20260422T00Z_MSC_GDPS_WindV_IsbL-0600_LatLon0.15_PT129H.grib2 2026-04-22 04:34 1.1M
20260422T00Z_MSC_GDPS_WindV_IsbL-0650_LatLon0.15_PT129H.grib2 2026-04-22 04:34 1.2M
20260422T00Z_MSC_GDPS_WindV_IsbL-0700_LatLon0.15_PT129H.grib2 2026-04-22 04:34 1.2M
20260422T00Z_MSC_GDPS_WindV_IsbL-0750_LatLon0.15_PT129H.grib2 2026-04-22 04:34 1.3M
20260422T00Z_MSC_GDPS_WindV_IsbL-0800_LatLon0.15_PT129H.grib2 2026-04-22 04:34 1.3M
20260422T00Z_MSC_GDPS_WindV_IsbL-0850_LatLon0.15_PT129H.grib2 2026-04-22 04:34 1.4M
20260422T00Z_MSC_GDPS_WindV_IsbL-0875_LatLon0.15_PT129H.grib2 2026-04-22 04:34 1.4M
20260422T00Z_MSC_GDPS_WindV_IsbL-0900_LatLon0.15_PT129H.grib2 2026-04-22 04:34 1.5M
20260422T00Z_MSC_GDPS_WindV_IsbL-0925_LatLon0.15_PT129H.grib2 2026-04-22 04:34 1.5M
20260422T00Z_MSC_GDPS_WindV_IsbL-0950_LatLon0.15_PT129H.grib2 2026-04-22 04:34 1.4M
20260422T00Z_MSC_GDPS_WindV_IsbL-0970_LatLon0.15_PT129H.grib2 2026-04-22 04:34 1.4M
20260422T00Z_MSC_GDPS_WindV_IsbL-0985_LatLon0.15_PT129H.grib2 2026-04-22 04:34 1.4M
20260422T00Z_MSC_GDPS_WindV_IsbL-1000_LatLon0.15_PT129H.grib2 2026-04-22 04:34 1.4M
20260422T00Z_MSC_GDPS_WindV_IsbL-1015_LatLon0.15_PT129H.grib2 2026-04-22 04:34 1.4M